Other Public Products
Issued by NWS Grand Forks, ND

Home | Current Version | Previous Version | Graphics & Text | Print | Product List | Glossary On
Versions: 1 2 3 4 5 6 7 8 9 10 11 12 13 14 15 16 17 18 19 20 21 22 23 24 25 26 27 28 29 30 31 32 33 34 35 36 37 38 39 40 41 42 43 44 45 46 47 48 49 50
000
FPUS83 KFGF 041610
OPUFGF
PRAIRIE TO PINES WEATHER ROUNDUP
NATIONAL WEATHER SERVICE EASTERN NORTH DAKOTA/GRAND FORKS ND
1100 AM CDT WED MAY 04 2016

 **SATELLITE DATA USED TO AUGMENT SKY COVER AT AUTOMATED STATIONS**
 *****  WEATHER ACROSS EASTERN NORTH DAKOTA  *****

CITY           SKY/WX    TMP DP  RH WIND       PRES   REMARKS
GRAND FORKS    MOSUNNY   56  36  47 NW8       30.10F
GRAND FORKS AF SUNNY     55  36  47 NW2       30.10F
GRAND CITY NWS NOT AVBL
BUXTON         NOT AVBL
DEVILS LAKE    SUNNY     55  38  52 SW8       30.11F
FARGO          SUNNY     59  37  44 N9        30.09F
WAHPETON ARPT  SUNNY     57  34  41 N12G17    30.08F
$$

 *****  WEATHER ACROSS CENTRAL AND WESTERN NORTH DAKOTA  *****

CITY           SKY/WX    TMP DP  RH WIND       PRES   REMARKS
JAMESTOWN      SUNNY     56  34  43 CALM      30.10F
BISMARCK       SUNNY     63  35  35 S6        30.10F
MINOT          SUNNY     74  34  23 CALM      30.03F
MINOT AFB      SUNNY     70  37  30 VRB3      30.02F
GARRISON         N/A     66  33  29 VRB3      30.06F
WILLISTON      SUNNY     72  44  36 S9        30.03F
DICKINSON      SUNNY     71  38  29 SW10      30.06F
HETTINGER      SUNNY     70  40  33 SW7       30.11F
$$

 *****  OTHER OBSERVATIONS NORTHEAST NORTH DAKOTA  *****

CITY           SKY/WX    TMP DP  RH WIND       PRES   REMARKS
WALHALLA       FAIR      55  36  47 NW5       30.10F
LANGDON        FAIR      61  30  31 CALM      30.09F
CAVALIER       FAIR      55  37  50 CALM      30.10F
GRAFTON        FAIR      55  36  47 SW3       30.12F
CANDO          FAIR      57  32  38 CALM      30.11F
FORT TOTTEN      N/A     59  39  48 NW3       29.95S
ROLLA          FAIR      59  28  31 SW7       30.08F
RUGBY          FAIR      61  32  33 S6        30.08F
 ***** THE ABOVE OBSERVATIONS ARE NON NWS ARE NOT QUALITY
        CONTROLLED AND MAY MIS-REPORT RAIN FOR SNOW...
$$

 *****  OTHER OBSERVATIONS SOUTHEAST NORTH DAKOTA *****

CITY           SKY/WX    TMP DP  RH WIND       PRES   REMARKS
COOPERSTOWN    NOT AVBL
VALLEY CITY    FAIR      55  34  44 N12       30.12F
OAKES            N/A    N/A N/A N/A MISG        N/A
GWINNER        FAIR      59  34  38 NW10G20   30.11S
SHEYENNE NWR     N/A     57  36  45 N8        29.95S
BUFFALO        NOT AVBL
WYNDMERE         N/A     57  37  47 N10         N/A
 ***** THE ABOVE OBSERVATIONS ARE NON NWS ARE NOT QUALITY
       CONTROLLED AND MAY MIS-REPORT RAIN FOR SNOW...
$$

  *****  WEATHER ACROSS NORTHERN MINNESOTA  *****

CITY           SKY/WX    TMP DP  RH WIND       PRES   REMARKS
FLAG ISLAND    SUNNY     46  27  46 N7        30.07S
WARROAD        SUNNY     48  34  57 E7        30.09S
ROSEAU         SUNNY     55  28  35 N8G16     30.08S
HALLOCK        CLOUDY    55  34  44 CALM      30.09F
THF RVR FALLS  SUNNY     55  28  35 N9G16     30.09F
HALSTAD        NOT AVBL
FOSSTON        SUNNY     55  27  33 N9        30.08F
BAUDETTE       SUNNY     52  26  36 N12       30.06F
WASKISH        SUNNY     54  25  32 NW7G16    30.06S
CROOKSTON      SUNNY     55  36  47 N8        30.10F
$$
  *****  WEATHER ACROSS CENTRAL AND WEST MINNESOTA  *****

CITY           SKY/WX    TMP DP  RH WIND       PRES   REMARKS
BEMIDJI        SUNNY     53  31  42 N12G17    30.05F
PARK RAPIDS    SUNNY     58  30  34 NW15G22   30.04F
WADENA         SUNNY     55  34  44 N15G22    30.04S
DETROIT LAKES  SUNNY     55  36  47 N12G23    30.07S
MOORHEAD       SUNNY     55  36  47 NW9       30.10S
FERGUS FALLS   SUNNY     57  37  47 NW14G20   30.05F
ELBOW LAKE     FAIR      56  37  48 NW14      30.06F
MORRIS MN      SUNNY     61  36  39 NW16      30.05F
STAPLES        SUNNY     55  30  38 NW15G24   30.03F
WHEATON        SUNNY     61  39  44 NW10G17   30.09F
$$
  *****  WEATHER ELSEWHERE ACROSS MINNESOTA  *****

CITY           SKY/WX    TMP DP  RH WIND       PRES   REMARKS
DULUTH         SUNNY     53  25  33 N15G24    29.96R
INTRNTL FALLS  SUNNY     50  23  34 NE12      30.04S
ELY            SUNNY     48  23  37 N6        29.98S
CLOQUET        SUNNY     54  23  30 N15G24    29.97S
BRAINERD       SUNNY     55  32  41 N16G23    30.02S
HIBBING        SUNNY     51  22  31 NW16      29.99S
ALEXANDRIA     SUNNY     58  33  39 NW18      30.05F
SAINT CLOUD    SUNNY     58  33  39 NW14G26   29.99F
MINNEAPOLIS    MOSUNNY   59  34  39 N15G23    29.98F
$$

  *****  WEATHER ACROSS SOUTH DAKOTA  *****

CITY           SKY/WX    TMP DP  RH WIND       PRES   REMARKS
SIOUX FALLS    SUNNY     59  38  45 N10       30.08F
BROOKINGS      SUNNY     58  35  42 N15       30.07F
WATERTOWN      SUNNY     60  37  42 NW12      30.08F
HURON          SUNNY     58  38  47 NW12      30.11F
SISSETON         N/A     59  37  44 N14       30.08F
ABERDEEN       SUNNY     60  36  40 N9G20     30.12F
MITCHELL       SUNNY     58  40  51 NW8       30.12F
PIERRE         SUNNY     59  35  40 CALM      30.12F
MOBRIDGE       SUNNY     61  39  44 VRB6      30.10F
RAPID CITY     SUNNY     69  45  41 VRB5      30.14F
$$

  *****  SOME WEATHER IN NEARBY STATES *****

CITY           SKY/WX    TMP DP  RH WIND       PRES   REMARKS
GLASGOW MT     SUNNY     69  44  40 SE12      29.99F
GREAT FALLS MT SUNNY     70  37  29 S17       29.99F
CHEYENNE WY    SUNNY     63  31  30 W6        30.27F
SCOTTSBLUFF NE SUNNY     63  44  50 NW5       30.20F
OMAHA NE       SUNNY     61  42  49 N9        30.05S
DES MOINES IA  MOSUNNY   60  35  39 N14G23    29.98R
DAVENPORT IA   MOSUNNY   55  42  61 N17G28    29.87R
CHICAGO IL     PTSUNNY   49  38  65 NW17G25   29.77R
EAU CLAIRE WI  MOSUNNY   55  32  41 N22G29    29.92S
LA CROSSE WI   MOSUNNY   58  35  42 N21       29.90S
$$

  *****  SOME NATIONAL WEATHER *****

CITY           SKY/WX    TMP DP  RH WIND       PRES   REMARKS
LA GUARDIA NY  LGT RAIN  50  48  93 NE16      29.78F
RALEIGH NC     PTSUNNY   69  57  65 VRB5      29.70F
ATLANTA GA     MOSUNNY   66  44  45 NW16G22   29.82S
NEW ORLEANS LA MOSUNNY   72  50  45 N15       29.99R
OKLAHOMA CITY  SUNNY     72  48  42 NW15      30.06S
ALBUQUERQUE NM MOSUNNY   63  31  30 NW7       30.33S
SALT LAKE CITY PTSUNNY   68  34  28 SE12      30.14F
LOS ANGELES CA CLOUDY    59  54  83 W7        29.97S FOG
BOISE ID       MOSUNNY   66  38  35 NW5       29.99S
SEATTLE WA     CLOUDY    53  46  77 N14       30.08S
$$

*** WEATHER ACROSS MANITOBA...SASKATCHEWAN AND ONTARIO ***
                ***ONTARIO***

CITY           SKY/WX    TMP DP  RH WIND       PRES   REMARKS
GERALDTON      FLURRIES  32  28  86 N12       29.94R WCI  23
THUNDER BAY    PTSUNNY   46  30  53 N12G20    29.96S
SIOUX LOOKOUT  NOT AVBL
TORONTO        PTSUNNY   55  41  58 E12       29.72S
BIG TROUT LK   SUNNY     32  23  69 SW8       30.06F WCI  25
PICKLE LAKE    MOSUNNY   41  12  30 N6        30.02S
DRYDEN         SUNNY     46  18  31 N7        30.04S
KENORA         MOSUNNY   50  19  29 NE8       30.06F
$$
                *** MANITOBA***

CITY           SKY/WX    TMP DP  RH WIND       PRES   REMARKS
BRANDON        PTSUNNY   61  34  36 S9        30.04F
DAUPHIN        SUNNY     66  34  30 SW10      29.96F
ISLAND LAKE    MOSUNNY   45  25  45 E5        30.05F
PILOT MOUND      N/A     57  28  33 SW5         N/A
THE PAS        CLOUDY    61  34  36 SE15      29.81F
THOMPSON       PTSUNNY   50  30  46 S8        29.83F
WINNIPEG       MOSUNNY   55  36  47 VRB5      30.09F
LYNN LAKE      MOSUNNY   61  36  39 S12G17    29.69F
CHURCHILL      PTSUNNY   36  25  64 S16       29.84F
GILLAM         CLOUDY    43  21  42 S15       29.92F
$$
                ***SASKATCHEWAN***

CITY           SKY/WX    TMP DP  RH WIND       PRES   REMARKS
ESTEVAN        PTSUNNY   75  43  31 SW16      29.99F
KINDERSLEY     MOSUNNY   72  37  28 W15G21    29.84F
LLOYDMINSTER   MOSUNNY   72  39  30 W10       29.76F
PRINCE ALBERT  MOSUNNY   77  48  36 SW7       29.78F
REGINA         MOSUNNY   79  39  24 SW13      29.93F
YORKTON        SUNNY     68  39  34 S8        29.92F  C1F1C2F2C3F3C4F4C5F5C6F6C7F7C8F8C9F9CaFaCbFbCcFcCdFdCe!


USA.gov is the U.S. government's official web portal to all federal, state and local government web resources and services.